Weather in Boktor

Russia / Khabarovsk Krai     51°05′45″N   137°24′36″E
temp.,
°C
wind,
m/s
gust,
m/s
humid.,
%
clouds,
%
prec.,
mm/h
press.,
hPa
HPBL,
m
27 february, sat
sat2701:00−20se2299100 0.1 103037
04:00−21se2399100 0.1 103182
07:00−21se359897 0.1 1031169
10:00−18sse499399 0.1 1030489
13:00−15sse4891100 0.1 1028494
16:00−14sse4889100 0.1 1025573
19:00−15se41193100 0.1 1024513
22:00−13sse51489100 0.3 1020610
28 february, sun
sun2801:00−12sse51691100 1.1 1016840
04:00−12s41392100 2.7 1012585
07:00−13se2995100 0.1 1011426
10:00−11sse249496 0.1 1011247
13:00−6sw138164 0.0 1011668
16:00−6wsw487882 0.1 10121356
19:00−12nw4147578 0.1 1015612
22:00−15nw4157648 0.1 1019582
1 march, mon
mon101:00−18wnw388565 0.0 1021276
04:00−20nnw288582 0.0 1022289
07:00−23nw2118046 0.0 1024276
10:00−19ssw127736 0.0 1025363
13:00−16sw348288 0.1 10241263
16:00−15w367694 0.3 10241302
19:00−20nw3117885 0.1 1025421
22:00−24wsw138243 0.1 102746
2 march, tue
tue201:00−25nw26820 0.0 1027121
04:00−28se00834 0.0 102819
07:00−28ese118536 0.0 103019
10:00−22s239436 0.0 1029245
13:00−18wsw277280 0.0 10281270
16:00−17wsw367585 0.1 10271355
19:00−21s239296 0.1 102940
22:00−25sse229451 0.1 103020
3 march, wed
wed301:00−26se22960 0.0 102920
04:00−28se22980 0.0 102819
07:00−28se2210063 0.0 102841
10:00−23sse369782 0.0 1026336
13:00−19sse599097 0.0 1022554
16:00−16sse5108798 0.1 1019596
19:00−17sse41484100 0.0 1017593
22:00−16sse41678100 0.0 1016631